CGCMQ CYPK-CYVR

Flight info

Callsign CGCMQ
Flight time 0h 10m
Altitude 1000
Route CYPK/26L
Aircraft C172

Departure

Time 2026-05-05 02:17
Airport Pitt Meadows Regional Airport (CYPK)

Arrival

Time 2026-05-05 02:27
Airport Vancouver International Airport (CYVR)
Time Latitude Longitude Altitude Speed Heading
2026-05-05 02:09 49.21155 -122.70470 20 ft 0 kts
2026-05-05 02:13 49.21156 -122.70470 20 ft 1 kts
2026-05-05 02:13 49.21195 -122.70435 20 ft 10 kts 15°
2026-05-05 02:13 49.21230 -122.70431 20 ft 1 kts 16°
2026-05-05 02:13 49.21237 -122.70428 20 ft 0 kts 19°
2026-05-05 02:15 49.21267 -122.70421 20 ft 12 kts
2026-05-05 02:16 49.21323 -122.70493 19 ft 13 kts 282°
2026-05-05 02:16 49.21369 -122.70980 35 ft 74 kts 276°
2026-05-05 02:16 49.21450 -122.71812 298 ft 79 kts 278°
2026-05-05 02:16 49.21561 -122.72662 517 ft 87 kts 281°
2026-05-05 02:17 49.21685 -122.73570 793 ft 85 kts 281°
2026-05-05 02:17 49.21791 -122.74487 1033 ft 88 kts 279°
2026-05-05 02:17 49.21895 -122.75513 1022 ft 101 kts 279°
2026-05-05 02:17 49.21997 -122.76562 1053 ft 103 kts 277°
2026-05-05 02:18 49.22085 -122.77674 1048 ft 105 kts 276°
2026-05-05 02:18 49.22160 -122.78782 1072 ft 103 kts 274°
2026-05-05 02:18 49.22167 -122.79880 1050 ft 105 kts 268°
2026-05-05 02:18 49.22109 -122.81025 1028 ft 107 kts 264°
2026-05-05 02:19 49.22040 -122.82138 1039 ft 103 kts 265°
2026-05-05 02:19 49.21961 -122.83247 1026 ft 102 kts 262°
2026-05-05 02:19 49.21881 -122.84322 1029 ft 100 kts 263°
2026-05-05 02:19 49.21791 -122.85365 1019 ft 101 kts 259°
2026-05-05 02:20 49.21684 -122.86394 1042 ft 95 kts 259°
2026-05-05 02:20 49.21565 -122.87383 1003 ft 97 kts 251°
2026-05-05 02:20 49.21277 -122.88335 935 ft 100 kts 236°
2026-05-05 02:20 49.20861 -122.89191 975 ft 94 kts 229°
2026-05-05 02:21 49.20366 -122.89906 1003 ft 102 kts 215°
2026-05-05 02:21 49.19756 -122.90542 1085 ft 108 kts 210°
2026-05-05 02:21 49.19117 -122.91182 1106 ft 116 kts 213°
2026-05-05 02:21 49.18473 -122.91952 1154 ft 115 kts 224°
2026-05-05 02:22 49.18042 -122.92999 1190 ft 118 kts 248°
2026-05-05 02:22 49.17867 -122.94230 1132 ft 124 kts 266°
2026-05-05 02:22 49.17870 -122.95520 1137 ft 121 kts 267°
2026-05-05 02:22 49.17745 -122.96810 1084 ft 123 kts 258°
2026-05-05 02:23 49.17690 -122.98115 1034 ft 125 kts 271°
2026-05-05 02:23 49.17813 -122.99367 1176 ft 111 kts 282°
2026-05-05 02:23 49.18045 -123.00577 1072 ft 121 kts 287°
2026-05-05 02:23 49.18373 -123.01807 936 ft 128 kts 293°
2026-05-05 02:24 49.18765 -123.02976 976 ft 120 kts 297°
2026-05-05 02:24 49.19134 -123.04140 943 ft 121 kts 292°
2026-05-05 02:24 49.19173 -123.05344 972 ft 119 kts 253°
2026-05-05 02:24 49.18800 -123.06482 963 ft 117 kts 236°
2026-05-05 02:25 49.18362 -123.07497 1002 ft 114 kts 236°
2026-05-05 02:25 49.17996 -123.08569 1097 ft 109 kts 249°
2026-05-05 02:25 49.17804 -123.10184 959 ft 123 kts 265°
2026-05-05 02:25 49.17813 -123.11075 908 ft 124 kts 275°
2026-05-05 02:26 49.17945 -123.12244 832 ft 93 kts 282°
2026-05-05 02:26 49.18107 -123.13103 673 ft 80 kts 282°
2026-05-05 02:26 49.18210 -123.13867 503 ft 71 kts 276°
2026-05-05 02:26 49.18296 -123.14606 362 ft 68 kts 279°
2026-05-05 02:27 49.18393 -123.15329 209 ft 68 kts 276°
2026-05-05 02:27 49.18465 -123.15986 86 ft 60 kts 273°
2026-05-05 02:27 49.18526 -123.16551 15 ft 41 kts 271°
2026-05-05 02:27 49.18530 -123.16873 10 ft 22 kts 231°
2026-05-05 02:28 49.18499 -123.16901 10 ft 0 kts 190°
2026-05-05 02:31 49.18495 -123.16917 10 ft 3 kts
2026-05-05 02:31 49.18579 -123.17014 10 ft 27 kts 284°
2026-05-05 02:31 49.18617 -123.17364 10 ft 32 kts 282°
2026-05-05 02:31 49.18579 -123.17618 10 ft 20 kts 228°
2026-05-05 02:32 49.18549 -123.17670 11 ft 0 kts 221°
2026-05-05 02:33 49.18528 -123.17699 10 ft 10 kts 224°
2026-05-05 02:33 49.18470 -123.17741 10 ft 14 kts 133°
2026-05-05 02:33 49.18451 -123.17598 10 ft 15 kts 100°
2026-05-05 02:33 49.18426 -123.17393 10 ft 20 kts 108°
2026-05-05 02:34 49.18332 -123.17249 10 ft 19 kts 142°
2026-05-05 02:34 49.18246 -123.17123 10 ft 16 kts 179°
2026-05-05 02:34 49.18126 -123.17125 10 ft 14 kts 123°
2026-05-05 02:34 49.18125 -123.17110 10 ft 0 kts 58°